TimePST,TemperatureF,Dew PointF,Humidity,Sea Level PressureIn,VisibilityMPH,Wind Direction,Wind SpeedMPH,Gust SpeedMPH,PrecipitationIn,Events,Conditions,WindDirDegrees,DateUTC
12:53 AM,21.9,12.9,68,29.98,10.0,South,9.2,-,N/A,,Clear,170,2011-11-15 08:53:00
1:49 AM,21.2,12.2,68,30.02,10.0,North,-9999.0,-,N/A,,Clear,0,2011-11-15 09:49:00
1:53 AM,19.9,12.0,71,29.99,10.0,SSW,12.7,57.5,N/A,,Clear,210,2011-11-15 09:53:00
2:23 AM,19.4,12.2,74,30.01,10.0,South,9.2,79.4,N/A,,Squalls,180,2011-11-15 10:23:00
2:53 AM,19.9,12.0,71,29.97,10.0,South,10.4,-,N/A,,Scattered Clouds,170,2011-11-15 10:53:00
3:53 AM,23.0,14.0,68,29.98,10.0,South,6.9,-,N/A,,Overcast,170,2011-11-15 11:53:00
4:53 AM,24.8,14.0,64,30.02,10.0,South,6.9,-,N/A,,Overcast,180,2011-11-15 12:53:00
5:53 AM,26.1,15.1,63,30.05,10.0,South,9.2,-,N/A,,Overcast,170,2011-11-15 13:53:00
6:53 AM,28.0,16.0,61,30.09,10.0,SSE,6.9,-,N/A,,Overcast,160,2011-11-15 14:53:00
7:53 AM,33.1,18.0,54,30.10,10.0,SSE,4.6,-,N/A,,Overcast,150,2011-11-15 15:53:00
8:53 AM,39.9,15.1,36,30.08,10.0,Calm,Calm,-,N/A,,Overcast,0,2011-11-15 16:53:00
9:53 AM,43.0,18.0,37,30.08,10.0,NNW,4.6,-,N/A,,Overcast,340,2011-11-15 17:53:00
10:53 AM,43.0,15.1,32,30.09,10.0,North,6.9,-,N/A,,Overcast,360,2011-11-15 18:53:00
11:53 AM,43.0,19.0,38,30.07,10.0,NW,6.9,-,N/A,,Overcast,320,2011-11-15 19:53:00
12:53 PM,43.0,21.0,42,30.07,10.0,NW,10.4,-,N/A,,Overcast,310,2011-11-15 20:53:00
1:53 PM,46.0,21.0,37,30.08,10.0,NNW,15.0,20.7,N/A,,Overcast,330,2011-11-15 21:53:00
2:53 PM,42.1,21.0,43,30.10,10.0,NNW,9.2,-,N/A,,Overcast,330,2011-11-15 22:53:00
3:53 PM,41.0,21.9,47,30.11,10.0,NW,10.4,-,N/A,,Overcast,320,2011-11-15 23:53:00
4:53 PM,37.9,21.0,51,30.11,10.0,NW,6.9,-,N/A,,Overcast,320,2011-11-16 00:53:00
5:53 PM,33.1,19.9,59,30.15,10.0,North,5.8,-,N/A,,Mostly Cloudy,360,2011-11-16 01:53:00
6:53 PM,30.0,19.9,66,30.18,10.0,WNW,8.1,-,N/A,,Partly Cloudy,300,2011-11-16 02:53:00
7:53 PM,27.0,19.0,72,30.18,10.0,WNW,9.2,-,N/A,,Partly Cloudy,290,2011-11-16 03:53:00
8:53 PM,26.1,18.0,71,30.18,10.0,West,9.2,-,N/A,,Clear,280,2011-11-16 04:53:00
9:53 PM,25.0,18.0,75,30.18,10.0,WNW,5.8,-,N/A,,Clear,290,2011-11-16 05:53:00
10:53 PM,19.9,16.0,85,30.20,10.0,SSE,6.9,-,N/A,,Clear,160,2011-11-16 06:53:00
11:53 PM,17.1,12.9,84,30.23,10.0,South,5.8,-,N/A,,Clear,180,2011-11-16 07:53:00